Location: Canazei
(46.4667°N, 11.7667°E)
Time: 03:21:54
(UTC+00:00)

Okean 2 - Pass Details

Date: 21 April 2021
Orbit: 560 x 576 km, 82.5° (Epoch: 10 May)

Event Time Altitude Azimuth Distance (km) Brightness Sun altitude
Exits shadow 03:31:58 - 200° (SSW) 2,634 6.4 -7.7°
Reaches altitude 10° 03:33:52 10° 204° (SSW) 1,873 5.6 -7.4°
Maximum altitude 03:37:54 53° 282° (WNW) 712 3.6 -6.8°
Drops below altitude 10° 03:42:00 10° 0° (N) 1,895 6.4 -6.2°
Sets 03:44:15 0° 5° (N) 2,800 7.4 -5.8°
